Regional Weather Roundup
Issued by NWS Sioux Falls, SD

Home | Current Version | Previous Version | Text Only | Print | Product List | Glossary On
Versions: 1 2 3 4 5 6 7 8 9 10 11 12 13 14 15 16 17 18 19 20 21 22 23 24 25 26 27 28 29 30 31 32 33 34 35 36 37 38 39 40 41 42 43 44 45 46 47 48 49 50
000
ASUS43 KFSD 272010
RWRFSD

WEATHER ROUNDUP FOR SE SOUTH DAKOTA/SW MINNESOTA/NW IOWA
NATIONAL WEATHER SERVICE SIOUX FALLS SD
300 PM CDT THU AUG 27 2015

NOTE: "FAIR" INDICATES FEW OR NO CLOUDS BELOW 12,000 FEET WITH NO
SIGNIFICANT WEATHER AND OR OBSTRUCTIONS TO VISIBILITY.


SDZ038>040-050-052>070-272100-
SOUTHEAST SOUTH DAKOTA

CITY           SKY/WX    TMP DP  RH WIND       PRES   REMARKS
BROOKINGS      CLOUDY    73  68  83 SE9       30.02S
CHAMBERLAIN    PTSUNNY   79  67  66 E10G16    29.92S
HURON          CLOUDY    80  69  69 E9        29.93F
MADISON        FAIR      77  68  73 SE8       30.00S
MITCHELL       PTSUNNY   78  68  71 SE12      29.95F
SIOUX FALLS    CLOUDY    77  66  68 SE8       29.97F
WINNER         CLOUDY    82  67  60 NE15      29.92F
YANKTON        PTSUNNY   79  68  69 E13       29.90F
$$

MNZ071-072-080-081-089-090-097-098-272100-
SOUTHWEST MINNESOTA

CITY           SKY/WX    TMP DP  RH WIND       PRES   REMARKS
FAIRMONT       CLOUDY    68  55  64 S3        30.06R
JACKSON        CLOUDY    70  63  78 SW5       30.07R
LUVERNE        CLOUDY    77  64  65 S6        30.01S
MARSHALL       CLOUDY    70  61  73 S16       30.01S
MONTEVIDEO     MOSUNNY   75  64  69 S3        30.00S
PIPESTONE      CLOUDY    77  66  69 E10       30.03S
REDWOOD FALLS  LGT RAIN  65  62  90 S20       30.02R
TRACY          TSTM      66  65  94 S9        30.03F
WINDOM         CLOUDY    68  63  83 NE7       30.05R THUNDER
WORTHINGTON    CLOUDY    72  63  73 SE3       30.04R
$$

IAZ001>003-012>014-020>022-031-032-NEZ013-014-SDZ071-272100-
NORTHWEST IOWA

CITY           SKY/WX    TMP DP  RH WIND       PRES   REMARKS
CHEROKEE       PTSUNNY   76  66  71 S12       29.99S
DENISON        MOSUNNY   75  66  73 S15       29.97F
ESTHERVILLE    CLOUDY    69  61  75 SE8       30.05S
LE MARS        PTSUNNY   79  66  65 S17G25    29.96F
ORANGE CITY    PTSUNNY   79  66  65 S12       29.98S
SHELDON        PTSUNNY   77  68  73 S8        29.99F
SIOUX CITY     PTSUNNY   80  65  59 S21G29    29.94F
SPENCER        PTSUNNY   76  63  64 SE12G17   30.03R
STORM LAKE     PTSUNNY   73  64  73 S17       30.00F
$$

ABBREVIATIONS USED IN REMARKS
   TC - TEMPERATURE IN CELSIUS
  WCI - WIND CHILL INDEX
   HX - HEAT INDEX
  VSB - VISIBILITY



USA.gov is the U.S. government's official web portal to all federal, state and local government web resources and services.